Location: Bastelaar
(51.0950°N, 3.8602°E)
Time: 17:12:56
(UTC+00:00)

Cosmos 2297 Rocket - Pass Details

Date: 18 November 2025
Orbit: 837 x 844 km, 71.0° (Epoch: 12 December)

Event Time Altitude Azimuth Distance (km) Brightness Sun altitude
Rises 18:27:12 0° 328° (NNW) 3,411 5.8 -23.9°
Reaches altitude 10° 18:30:53 10° 352° (N) 2,475 4.7 -24.5°
Enters shadow 18:33:00 14° 14° (NNE) 2,189 4.2 -24.8°
